Theta_e
312 313 313 313 313 313 313 312 312 312 312 313 313 313 314 313 310 310 310 307 307 312 313 313 313 313 313 313 313 313 311 310 311 312 312 313 313 313 312 312 313 313 314 312 309 308 308 308 308 308 309 311 314 318 321 323 324 325 326 327 328 329 330 330 330 331 330 330 331 331 333 335 335 334 332 330 331 332 333 333 333 332 332 332 332 331
311 313 314 313 312 312 310 310 310 310 311 312 312 312 313 313 311 310 310 308 306 311 313 311 312 313 313 313 314 313 312 311 312 313 314 314 314 313 313 313 313 313 313 311 309 309 308 307 308 308 307 307 309 311 315 318 321 323 324 325 326 327 328 329 329 330 330 330 330 330 331 332 333 334 334 333 332 332 331 331 331 331 331 331 331 329
313 314 314 310 309 309 308 308 310 311 312 313 312 312 312 313 311 309 309 308 307 310 313 311 312 314 315 314 314 314 314 313 313 313 313 313 313 313 313 313 313 312 311 311 310 310 308 306 306 306 307 307 308 309 310 311 316 320 322 322 324 325 326 327 328 328 329 329 329 329 329 329 330 331 332 332 332 330 330 329 329 329 329 329 328 327
313 313 310 306 306 308 308 308 310 311 311 313 313 312 313 314 312 309 310 309 307 308 310 312 313 314 315 314 314 313 311 311 310 308 308 309 311 312 312 312 310 310 311 311 311 310 309 306 305 305 306 306 307 307 308 308 310 313 315 317 321 323 324 325 325 326 328 328 328 329 329 328 328 329 329 330 330 329 328 328 328 328 329 329 329 329
313 308 304 305 308 310 310 310 311 311 311 314 316 316 316 316 314 312 311 309 308 307 308 311 312 312 314 314 313 311 307 307 306 306 307 307 308 308 307 308 307 307 309 309 310 310 310 308 307 306 305 305 306 306 307 307 308 308 309 311 315 318 321 322 323 324 325 326 327 327 327 327 327 327 328 329 330 330 329 329 329 329 330 332 332 332
312 304 302 306 309 312 312 311 313 314 312 313 316 317 317 315 314 314 312 311 311 311 309 310 309 309 313 314 313 311 309 310 309 308 309 308 308 307 307 309 309 308 308 307 307 308 308 307 307 306 305 305 305 305 306 307 307 307 308 308 310 313 316 318 320 322 324 325 325 326 326 327 327 326 326 327 327 329 329 330 330 329 330 330 331 331
308 303 305 309 311 314 314 311 315 316 312 311 314 316 316 316 317 317 315 313 312 311 309 308 310 309 312 313 313 311 312 313 311 311 310 309 310 310 311 312 311 310 310 308 306 305 305 306 307 308 307 307 306 306 306 306 307 307 307 307 308 310 313 315 317 320 323 324 324 325 325 326 326 325 326 326 326 326 327 327 328 328 328 328 328 328
306 304 307 311 312 314 313 312 315 314 311 313 314 316 316 317 320 320 316 314 312 311 311 311 312 310 309 313 313 310 311 313 312 311 311 311 311 311 311 310 310 310 310 308 307 307 308 308 309 310 310 309 308 308 307 306 307 307 307 307 308 310 312 314 317 320 322 323 323 324 324 325 325 325 325 325 325 325 325 326 326 326 326 326 326 326
308 309 310 311 312 312 314 316 315 313 313 315 311 313 315 316 319 318 315 313 311 311 311 312 313 310 309 313 313 310 310 312 312 311 312 312 311 310 310 309 309 309 309 307 307 310 311 311 310 310 310 310 310 309 308 307 307 308 308 308 309 311 313 315 318 321 322 322 323 324 324 324 324 324 325 325 325 324 324 324 325 325 325 325 325 325
309 310 309 311 312 313 313 311 311 315 316 312 307 311 314 314 315 315 313 311 310 310 312 312 311 309 309 313 314 310 310 312 312 311 311 311 310 310 309 309 309 309 310 309 309 311 311 310 310 309 310 310 310 310 309 309 309 309 309 310 311 313 315 317 318 320 321 322 323 323 324 324 324 324 324 323 323 322 322 323 323 324 324 324 324 324
308 307 309 312 312 310 308 305 307 314 313 309 311 313 313 313 313 312 311 310 310 312 311 309 307 308 308 311 314 312 310 312 312 312 311 311 310 309 309 308 308 308 310 310 310 311 310 308 308 309 310 310 311 311 311 311 311 311 311 312 314 315 316 318 318 319 320 321 322 323 323 323 323 323 323 322 321 321 321 321 322 322 322 322 323 323
310 309 311 311 308 307 309 308 306 307 308 310 314 314 313 313 312 311 310 310 312 312 309 305 305 308 308 310 312 311 309 309 311 312 312 311 310 310 309 308 308 308 309 310 311 311 311 311 310 310 311 311 311 312 312 312 313 313 314 315 315 317 318 319 320 320 321 321 322 322 322 323 322 322 322 321 321 321 321 321 321 321 321 321 322 322
313 312 311 310 307 308 313 312 307 307 309 312 313 312 313 313 312 313 313 312 312 311 306 304 305 308 309 310 310 310 309 307 309 312 312 310 309 309 309 308 308 309 309 311 311 312 313 313 312 312 312 311 311 312 313 313 314 314 315 316 316 317 318 319 319 320 321 321 321 322 322 322 321 321 321 321 321 321 320 320 319 319 319 319 320 320
314 314 312 312 310 309 314 313 310 310 310 312 314 312 312 313 313 314 312 309 310 309 305 304 306 309 310 310 311 311 310 308 307 309 310 309 308 307 307 307 308 310 310 311 312 311 312 312 312 311 311 310 310 311 312 312 313 313 314 314 314 315 315 316 317 317 318 318 318 318 318 318 318 318 318 318 318 318 318 318 318 318 318 317 317 318
314 314 313 313 312 311 313 313 314 314 311 313 316 314 312 313 313 313 311 310 310 309 306 304 307 310 310 309 310 309 309 309 307 305 306 307 306 306 306 307 309 311 310 311 311 311 311 311 311 311 310 309 309 309 310 311 311 312 312 312 312 312 313 313 313 313 313 313 313 314 314 314 314 314 314 314 314 314 314 314 315 315 315 315 315 315
313 313 311 311 310 311 313 313 314 314 312 311 312 312 312 313 312 309 307 308 308 308 308 307 308 311 311 310 310 308 307 308 307 305 306 308 306 306 309 310 311 311 310 311 311 310 310 310 310 309 309 308 308 308 309 309 310 311 311 311 311 311 311 311 312 311 311 311 311 311 311 311 311 311 311 311 311 311 311 311 311 312 312 312 313 313
311 312 312 311 309 309 312 312 313 314 313 310 310 310 310 313 314 309 305 304 305 308 310 309 310 311 310 310 310 309 308 308 306 306 307 308 308 309 313 313 311 311 310 310 310 309 309 309 308 307 306 306 306 306 306 307 308 309 309 309 309 310 310 310 310 311 310 311 311 310 310 310 310 310 310 309 309 309 310 310 310 310 310 311 311 311
313 312 312 314 313 310 309 310 312 313 312 310 311 312 309 310 312 310 308 307 306 309 310 309 310 309 308 309 310 309 310 310 308 308 308 308 310 312 313 312 311 310 309 308 308 308 308 308 307 306 305 304 304 304 305 306 306 307 307 307 307 308 308 309 309 309 309 310 310 310 310 309 309 309 309 309 309 309 309 309 309 309 309 309 310 310
317 313 311 313 314 311 310 312 312 311 310 310 311 311 310 311 311 308 309 310 309 310 310 308 306 307 308 309 310 310 311 311 309 308 307 308 311 313 312 311 310 309 309 308 308 308 308 307 306 305 304 303 303 303 304 305 305 306 306 306 307 307 307 308 308 309 309 309 309 310 309 309 309 309 308 308 308 308 308 308 308 308 308 308 309 309
317 314 313 312 312 312 311 312 313 312 310 308 308 309 310 311 311 310 309 309 310 310 310 309 306 307 310 310 310 310 311 311 310 309 308 309 312 313 312 311 310 309 310 309 308 307 307 306 304 303 303 302 303 303 304 305 305 306 306 306 307 307 307 308 308 309 309 309 310 310 309 309 309 309 309 308 308 308 308 308 308 308 308 308 308 308
313 312 313 312 311 312 312 313 315 315 310 308 308 309 310 309 308 309 308 307 309 309 308 309 307 308 310 309 310 310 309 310 311 309 309 310 312 313 312 311 311 310 310 308 307 307 306 305 303 302 302 302 303 304 304 305 306 306 307 307 307 307 307 308 308 308 308 309 309 309 309 309 308 309 308 308 308 308 308 308 308 308 307 307 307 307
312 311 314 314 312 313 314 312 311 314 314 312 309 310 312 311 310 311 311 308 307 308 308 308 308 309 312 309 308 308 307 308 309 309 309 310 312 312 311 311 311 309 309 308 306 306 306 305 303 302 301 302 302 303 304 305 305 306 306 306 307 307 307 307 307 307 308 308 308 308 308 308 308 308 308 307 307 307 307 307 307 307 307 307 307 306
315 314 315 314 313 313 312 309 307 310 315 312 310 311 312 312 311 312 313 310 306 305 305 306 307 310 312 308 305 305 304 304 304 306 308 310 311 312 311 310 309 309 308 306 305 305 305 304 302 302 302 301 302 302 302 303 304 304 305 305 306 306 306 307 306 307 307 307 307 307 307 307 307 307 307 307 307 306 306 306 305 306 306 306 306 306
315 316 315 313 313 313 311 310 309 310 313 311 311 312 311 312 314 312 311 310 308 307 307 307 308 311 313 308 306 305 304 304 304 304 307 310 310 311 310 309 308 308 306 304 304 305 304 303 302 302 302 302 301 301 301 302 302 303 304 304 305 306 306 306 306 306 306 306 306 307 307 307 307 307 307 307 306 306 306 306 305 305 305 305 305 305
312 315 316 313 313 314 313 312 312 312 311 310 312 312 311 313 314 310 308 309 309 310 310 310 310 311 312 310 309 307 305 307 306 303 306 310 311 310 309 308 307 307 305 304 304 304 303 303 303 303 303 302 301 300 301 302 303 303 304 305 306 306 306 306 306 306 305 306 306 307 306 307 306 306 306 306 306 306 306 306 306 306 306 306 305 305
314 316 315 314 315 315 315 315 315 315 312 312 315 314 312 313 312 310 309 309 310 310 310 310 311 310 309 308 308 308 307 307 306 303 304 309 310 310 309 308 307 306 306 305 305 304 303 303 303 302 302 301 300 300 300 301 302 303 304 304 305 305 305 305 305 305 305 306 306 306 305 305 305 305 305 304 305 305 305 305 305 305 305 305 305 305
317 317 313 313 315 314 315 316 317 318 316 314 317 317 314 312 312 313 312 310 311 310 309 311 313 311 309 308 308 309 309 309 307 304 305 308 310 310 309 308 307 306 306 305 304 304 303 303 303 302 301 300 299 299 300 300 301 302 302 303 303 303 304 304 304 304 304 304 303 302 301 301 300 300 300 300 300 300 300 301 301 301 302 302 303 304
316 315 313 314 315 314 316 318 319 318 317 316 317 316 314 313 312 313 313 312 313 312 310 312 314 312 311 309 309 310 310 310 308 306 307 309 309 309 308 307 306 305 305 304 304 304 303 302 302 301 300 299 299 298 299 299 300 300 301 301 301 301 301 301 301 301 300 299 298 297 296 296 296 296 296 296 296 296 296 296 296 296 296 297 298 299
314 312 314 315 314 315 317 318 318 317 316 316 317 315 314 313 312 314 314 314 315 313 312 314 314 313 311 310 311 312 310 310 309 307 309 310 309 308 307 306 306 305 304 304 304 303 303 302 302 301 300 298 298 298 298 298 298 299 299 299 299 298 298 297 297 296 296 295 295 294 294 294 294 294 294 294 294 294 294 294 294 294 294 294 295 295
314 313 316 314 312 314 316 316 318 318 316 316 318 316 314 313 313 313 314 314 315 314 314 316 317 315 312 310 312 312 311 310 310 309 309 309 309 308 307 307 307 305 304 304 304 302 302 301 301 300 299 298 298 297 297 297 297 297 297 297 296 295 294 294 294 294 294 294 294 293 293 293 293 293 293 293 293 294 293 293 293 293 293 293 293 293
311 315 318 314 311 313 315 315 315 315 315 315 317 316 314 313 313 313 313 314 314 314 314 316 317 315 312 311 312 312 311 309 309 308 308 309 309 308 307 308 307 305 304 304 303 301 300 300 299 299 298 298 297 296 296 295 295 295 295 294 294 293 293 293 293 293 292 292 292 292 292 292 292 292 292 292 292 292 292 292 292 292 292 292 292 292
310 314 316 312 311 314 315 314 313 312 313 313 315 315 313 313 313 312 313 314 314 314 314 314 315 313 310 310 311 311 310 308 308 308 308 309 310 308 308 308 307 305 304 303 301 300 298 298 299 298 298 297 296 295 294 294 293 293 293 293 293 293 292 292 291 291 291 290 290 290 290 290 291 291 291 291 291 291 291 291 291 291 291 291 291 291
312 313 313 311 311 315 313 311 311 312 312 311 313 313 313 313 313 312 313 313 313 314 314 313 313 312 311 310 311 311 310 309 309 310 310 310 309 308 308 308 306 305 304 302 300 298 298 298 298 298 297 296 295 294 294 293 293 293 293 293 292 292 291 290 290 290 290 290 290 290 290 290 291 291 291 291 291 291 291 291 291 291 291 291 291 291
314 314 313 312 312 315 311 309 311 312 311 311 313 314 314 314 313 313 314 313 312 313 312 312 313 312 312 311 311 312 311 310 310 310 310 310 310 308 308 307 306 304 302 300 299 298 298 298 297 297 296 295 294 294 293 293 292 292 292 292 291 290 290 289 290 290 289 289 290 290 290 291 291 291 291 291 291 291 291 291 291 290 290 290 290 290
313 313 312 311 311 312 309 309 312 312 311 315 318 315 312 312 311 313 314 312 311 312 311 312 312 311 312 311 311 312 311 311 314 312 310 310 310 309 308 307 305 303 301 299 298 298 298 297 297 296 295 294 294 293 293 292 291 291 291 290 290 290 290 290 290 290 290 290 289 290 290 290 290 290 290 290 290 290 290 290 290 290 290 290 290 290
312 312 311 310 310 310 308 309 312 313 313 316 317 312 310 311 311 312 314 312 311 311 311 311 311 311 312 310 310 315 315 314 315 314 311 310 310 309 308 307 303 301 300 299 298 298 298 297 296 296 294 294 293 293 292 291 291 290 290 289 290 290 290 290 290 290 289 289 289 290 289 290 290 290 290 290 290 290 290 290 290 290 290 290 290 290
311 311 311 310 311 311 310 310 312 313 314 316 316 312 309 310 311 311 313 312 310 310 310 310 310 310 311 311 311 314 313 311 312 313 310 307 307 308 307 305 301 300 300 299 298 297 297 296 295 294 293 293 292 291 291 290 290 290 289 289 290 290 290 289 289 289 289 289 289 289 289 289 289 289 289 289 289 289 289 289 289 290 289 289 290 290
312 312 313 312 311 311 311 311 312 313 314 314 316 314 310 310 311 311 312 313 311 310 310 310 310 310 311 313 312 312 311 309 311 313 310 304 303 304 303 302 300 299 298 297 297 296 295 294 294 293 292 291 290 290 290 289 289 290 289 289 289 289 289 288 288 288 288 289 289 289 289 289 289 288 289 289 289 289 289 289 289 289 289 289 289 289
313 314 313 312 313 312 312 312 313 313 313 314 317 316 312 310 311 310 311 312 312 311 310 309 309 310 312 313 311 310 310 310 312 312 309 301 299 300 299 299 298 297 297 296 296 295 294 293 292 291 290 289 289 289 289 289 289 289 289 288 288 288 287 286 286 287 288 288 289 289 289 289 289 289 289 289 289 289 289 289 289 289 289 289 289 289
313 313 312 312 314 313 312 313 313 313 315 317 318 315 310 309 310 312 313 313 312 312 311 310 309 310 310 312 310 310 310 311 313 311 304 298 298 299 298 297 297 296 295 295 294 294 293 292 291 289 288 288 288 288 288 288 289 289 288 287 287 286 285 284 285 286 287 288 289 289 289 289 289 289 289 289 289 289 289 289 289 289 289 289 289 289
314 313 312 313 314 314 314 314 312 313 319 321 315 310 309 310 312 314 315 315 314 314 312 310 309 310 310 310 309 309 310 310 309 304 298 297 298 297 297 297 295 294 294 293 293 292 291 290 288 287 286 286 286 287 287 288 289 288 287 286 285 284 283 284 285 287 288 288 289 289 289 289 289 289 288 288 288 288 288 288 288 288 288 288 288 288
315 315 314 314 314 314 315 315 314 315 320 319 311 306 309 312 314 315 316 315 315 317 315 310 310 311 310 309 310 310 307 303 300 298 297 297 297 295 295 295 293 293 292 292 291 290 288 287 285 285 285 285 285 286 287 288 288 288 286 285 284 283 283 285 286 287 288 288 288 288 288 288 288 288 288 287 287 287 288 287 287 287 287 286 286 286
316 316 316 315 315 315 316 315 316 317 316 314 310 308 310 312 314 315 316 313 309 312 314 311 310 311 310 308 309 307 302 298 298 297 297 296 295 294 295 294 292 292 290 289 288 287 286 285 284 283 283 283 284 285 286 287 288 287 285 283 282 282 284 285 285 286 286 287 287 287 287 287 287 286 286 286 286 285 286 286 286 285 285 285 284 285
315 316 316 315 315 316 316 316 317 317 314 311 313 313 310 310 312 312 313 315 310 306 307 308 308 308 308 308 306 302 299 297 297 297 296 295 295 294 293 293 291 290 288 286 285 285 285 284 282 282 282 282 283 284 285 286 286 285 283 281 280 282 283 283 284 285 285 285 285 285 285 285 285 285 284 284 283 283 284 284 284 284 284 284 283 283
314 314 315 316 315 315 315 315 316 316 312 309 311 313 311 313 312 308 309 313 311 305 304 306 307 305 305 304 302 299 298 297 296 296 295 294 294 293 292 291 289 287 285 283 282 283 284 283 282 282 281 281 282 283 284 284 283 282 280 279 279 280 281 282 283 283 283 283 283 282 282 282 282 282 282 281 281 281 281 282 282 282 282 282 282 282
311 311 312 314 314 314 314 313 312 311 310 308 307 306 307 310 310 308 309 313 312 307 304 304 305 302 301 301 301 299 298 297 296 295 295 293 292 291 289 288 286 285 283 281 281 282 283 283 282 281 280 279 280 280 280 280 280 280 279 278 279 279 279 280 280 279 279 279 278 279 279 279 279 279 280 280 279 279 279 279 280 280 281 281 282 283
309 309 310 312 313 314 316 315 313 310 309 308 306 304 304 306 306 305 308 311 309 305 303 302 302 300 299 300 301 299 297 296 295 294 293 292 290 289 287 285 283 282 281 280 280 281 282 282 281 279 277 277 277 278 278 278 278 278 278 278 278 278 278 277 276 276 276 276 277 277 277 277 277 277 278 278 277 277 278 278 279 280 280 281 282 282
309 309 310 312 312 312 313 311 307 304 303 302 303 303 305 307 306 303 301 302 302 301 301 300 299 299 299 299 299 298 297 296 295 294 292 291 289 288 286 283 281 280 278 278 278 279 280 280 279 277 276 275 276 277 278 278 277 277 277 277 276 276 276 275 274 274 275 275 274 275 275 274 274 274 275 275 275 275 276 277 278 279 279 280 280 281
307 308 310 311 311 310 310 306 302 302 304 303 303 303 304 305 305 302 298 298 299 299 299 298 297 298 299 299 298 297 297 296 294 293 292 290 288 286 283 281 279 278 277 276 276 277 278 278 278 277 276 275 276 277 277 276 276 275 275 274 274 273 273 273 272 272 272 272 272 272 272 272 272 272 273 274 274 274 275 276 277 278 278 278 279 279
305 308 308 309 310 310 310 307 304 306 309 308 306 305 304 301 301 301 299 298 299 299 298 297 296 296 296 297 297 297 297 295 293 292 291 288 285 283 281 279 278 277 276 275 275 276 276 276 276 276 275 274 275 276 275 274 274 273 273 272 271 271 271 271 271 271 271 270 271 271 271 271 272 272 272 273 273 274 274 275 275 276 277 277 277 277
305 307 307 308 309 309 309 308 306 307 309 309 308 307 303 299 300 301 301 300 299 297 296 297 298 297 295 295 295 296 295 293 291 290 288 284 282 280 279 277 277 275 274 274 273 273 273 273 273 273 273 273 273 274 272 271 271 271 270 270 269 269 270 270 270 269 270 270 270 270 270 270 271 272 272 273 273 274 274 274 274 274 275 276 276 276
Wind_Speed
1 5 7 7 8 10 9 4 3 3 4 8 7 4 3 4 2 1 2 2 1 4 6 6 8 11 12 11 12 7 3 5 10 9 9 8 7 6 7 7 7 8 7 3 7 11 12 14 16 18 20 22 24 26 27 28 29 30 28 27 26 23 20 21 22 21 21 21 20 21 21 22 24 25 24 22 22 22 21 22 24 27 28 29 27 24
2 7 7 3 4 6 6 5 6 5 5 6 6 5 2 2 1 1 1 2 1 3 3 1 6 12 13 12 12 9 6 8 11 11 10 9 7 6 6 8 7 6 5 4 7 8 9 12 12 13 15 17 19 22 25 27 28 28 28 29 29 26 23 22 22 21 22 21 20 20 20 20 22 22 22 21 22 22 20 19 21 22 24 24 23 23
5 7 4 4 5 8 6 3 5 6 5 4 3 4 3 1 2 2 1 2 1 2 1 1 5 10 11 11 11 10 9 9 8 8 8 6 7 6 6 6 5 6 6 5 7 7 8 11 11 12 13 15 18 19 21 23 24 25 28 30 29 28 28 25 22 21 21 20 18 17 16 17 18 18 18 20 22 24 25 24 23 23 24 25 25 27
7 4 4 6 8 10 6 2 6 6 3 2 2 4 2 1 2 2 3 3 1 1 2 2 5 9 8 9 10 8 6 6 4 6 7 7 8 8 7 5 5 8 8 7 8 7 6 8 10 12 13 15 17 18 20 21 22 24 26 29 28 28 28 26 23 20 18 18 17 16 16 16 17 17 18 19 21 24 25 25 26 26 27 29 30 30
3 2 3 5 6 9 7 4 6 6 3 0 2 3 2 3 3 1 4 4 1 1 1 2 6 7 4 6 7 3 1 4 3 4 6 6 7 7 6 6 7 9 9 9 8 6 5 6 7 9 11 14 16 18 20 21 22 23 24 25 26 26 26 26 26 20 16 17 17 17 19 19 19 20 19 20 20 22 24 25 26 27 27 28 28 26
2 2 3 7 5 5 7 6 6 6 4 2 4 3 2 5 6 4 6 4 2 3 1 2 5 4 1 3 5 0 1 3 2 2 4 3 3 4 4 4 5 6 7 8 8 6 5 6 7 8 10 12 13 16 18 19 21 21 22 23 23 24 24 24 25 20 15 16 17 18 20 20 20 20 21 22 22 21 22 24 25 25 24 24 25 25
2 1 1 6 8 6 6 6 5 5 5 3 3 2 3 5 8 8 7 4 2 1 1 1 5 4 1 3 3 1 4 5 3 2 1 1 1 1 2 2 3 3 4 5 6 6 5 5 5 5 6 8 11 13 15 16 18 19 20 20 20 20 21 21 22 19 15 15 16 17 19 19 18 18 18 19 18 17 18 19 19 20 20 21 23 24
4 4 2 4 7 7 6 5 5 7 6 3 1 2 6 7 8 8 7 3 0 1 1 0 2 4 5 3 0 1 4 6 3 3 1 1 1 0 1 2 3 3 3 3 3 2 2 3 3 3 4 6 7 10 12 13 14 16 17 17 15 16 17 17 16 15 14 15 15 15 17 16 16 17 16 14 13 14 15 15 15 15 17 19 21 22
3 5 6 7 7 6 5 2 3 7 4 0 1 1 4 6 6 6 4 2 2 1 4 2 1 4 6 2 1 1 3 6 3 3 2 1 1 2 2 3 3 3 2 2 1 0 1 1 2 3 4 5 6 7 9 10 12 12 13 13 12 12 13 13 12 13 13 14 13 13 14 15 15 15 14 12 12 11 11 13 14 14 15 17 19 20
1 2 3 5 6 5 2 3 1 3 2 3 5 5 6 5 5 4 2 3 2 3 5 2 2 4 5 3 2 1 2 6 3 3 2 1 1 2 3 3 3 2 2 1 1 1 1 1 3 6 7 8 8 9 9 9 10 10 11 11 11 11 11 11 11 12 13 13 13 12 13 14 13 12 11 12 14 14 14 16 17 16 16 17 18 20
1 0 1 1 1 2 5 5 4 2 4 8 7 7 8 5 3 3 2 2 2 4 2 2 2 3 4 3 3 2 1 2 2 4 3 2 2 2 3 3 3 3 2 2 1 2 2 3 5 8 9 9 10 11 11 11 11 12 12 12 11 11 11 11 11 12 13 14 13 12 11 12 11 10 10 12 15 16 18 21 21 20 20 20 21 22
1 2 1 1 1 2 5 6 6 3 4 5 4 6 7 3 2 2 2 1 4 4 2 3 2 3 5 3 1 0 1 1 2 5 5 3 3 4 3 3 3 2 2 2 2 3 4 5 7 8 9 11 12 12 13 14 14 14 14 13 12 12 11 11 11 11 11 13 13 12 11 10 10 9 9 10 12 13 15 18 19 19 21 23 24 24
3 2 1 2 1 3 3 6 5 1 1 2 5 7 6 3 2 3 2 2 4 2 2 1 2 3 7 6 5 5 4 4 4 3 3 2 2 3 3 3 3 2 2 2 3 3 4 4 6 7 8 11 13 14 14 15 15 15 14 13 12 12 11 10 10 10 9 9 10 10 10 9 9 10 10 10 10 10 11 12 13 14 16 18 20 22
3 1 1 2 2 3 3 5 5 4 5 5 7 7 6 5 4 5 3 1 3 0 2 1 1 3 5 5 8 10 5 3 3 2 0 1 2 3 3 3 2 2 2 2 3 4 4 5 5 6 8 11 13 14 14 15 15 15 14 13 12 11 10 9 8 7 6 6 6 6 7 8 9 10 11 10 9 9 9 10 11 12 12 13 14 16
4 3 4 3 2 2 3 2 1 4 5 3 1 1 4 4 3 4 3 2 2 2 2 1 2 4 2 1 2 3 1 1 1 0 1 2 3 3 2 1 1 3 3 3 4 5 5 6 6 7 9 12 14 14 14 14 14 14 14 13 12 11 10 9 8 7 6 6 6 6 6 7 8 9 10 10 11 11 10 11 11 12 12 13 13 14
2 1 1 1 1 2 2 2 2 4 4 1 1 1 2 2 2 2 1 0 1 1 2 3 3 3 2 3 2 2 0 2 2 1 2 2 1 1 2 3 4 5 5 4 5 5 6 6 7 8 10 13 15 15 15 15 15 14 14 14 13 12 11 11 10 9 9 8 7 7 6 6 6 6 7 8 9 10 11 12 12 14 15 14 15 16
2 0 2 1 0 1 0 2 2 1 2 2 2 3 2 1 4 4 1 1 1 3 2 3 4 3 3 6 2 3 2 3 3 3 4 3 3 4 4 5 5 5 4 4 4 5 6 6 7 8 10 12 14 16 16 16 16 16 15 14 14 13 12 12 11 10 9 8 7 5 4 3 2 3 4 5 6 7 9 10 11 13 14 14 14 15
3 2 2 1 2 2 2 1 2 2 0 2 3 5 3 1 1 2 1 2 1 4 1 2 5 4 3 3 1 3 4 4 5 4 5 5 5 7 6 5 5 4 4 4 4 5 5 6 7 8 10 13 15 16 16 17 17 17 16 15 14 13 12 12 11 10 10 9 8 6 5 3 1 0 2 3 4 5 6 7 8 10 11 12 12 13
2 2 1 1 0 1 1 1 2 1 1 0 2 2 2 2 3 2 2 2 3 4 2 2 3 3 5 4 0 3 7 8 7 5 6 7 8 8 7 6 6 5 4 4 5 5 5 6 7 8 10 13 15 17 18 18 18 18 18 17 16 16 14 13 12 12 11 10 10 8 7 5 4 3 3 3 4 5 6 7 8 9 10 11 11 12
1 1 1 1 1 0 0 2 5 4 2 1 1 2 0 2 2 3 2 2 3 3 2 2 1 3 6 5 5 6 8 10 9 7 7 10 11 10 8 7 6 5 5 5 5 4 5 7 7 8 11 14 17 18 19 20 19 19 19 18 18 17 16 15 14 14 13 12 11 10 9 8 8 7 7 7 7 7 8 8 8 9 10 10 10 11
1 1 2 2 1 1 3 3 4 5 4 3 4 5 4 1 0 1 1 1 1 3 3 2 3 3 2 4 8 6 3 4 7 7 7 9 10 10 9 8 7 6 5 5 5 5 6 7 8 9 12 15 18 19 20 20 20 19 19 18 18 17 17 16 15 15 14 14 13 13 12 12 12 11 11 10 10 10 9 9 9 9 10 10 10 11
1 1 3 4 2 3 2 1 2 2 1 2 4 5 6 4 3 4 4 1 1 1 2 1 3 3 1 2 5 2 2 1 3 6 7 8 10 10 8 7 7 6 6 5 5 5 6 7 7 9 13 16 18 19 20 20 20 20 20 19 19 19 19 18 17 17 16 15 15 15 15 15 15 15 14 13 13 12 12 11 11 10 10 10 10 10
1 3 4 3 2 2 2 1 1 2 2 1 2 2 3 3 4 5 5 4 2 1 1 1 2 3 1 1 2 1 1 1 1 2 6 8 9 9 8 7 6 6 5 5 5 5 6 7 7 9 11 14 17 18 18 19 20 20 20 20 20 20 20 19 19 18 17 17 16 16 17 16 16 16 16 15 15 15 14 13 13 12 12 12 11 11
1 3 4 2 1 0 1 1 1 0 1 3 4 2 3 3 2 1 1 2 4 4 3 2 4 4 1 1 2 1 2 2 2 3 6 9 8 8 8 8 6 6 5 5 5 6 6 6 6 6 7 9 12 15 17 18 19 19 20 20 20 20 19 19 18 18 17 17 17 17 17 17 17 17 17 18 17 17 17 16 16 16 16 15 14 13
4 4 5 4 3 2 1 2 2 2 3 4 3 3 3 2 4 3 1 2 3 5 7 5 6 4 2 1 1 1 2 3 3 4 5 8 8 8 7 6 6 6 6 6 6 6 6 6 6 6 6 7 10 14 16 17 18 19 19 19 19 19 19 18 18 17 17 18 18 19 18 18 19 19 19 19 19 18 18 18 18 19 19 19 19 18
5 4 6 7 6 5 6 7 6 5 4 3 2 4 7 8 8 5 2 3 4 4 6 7 7 3 2 1 2 2 3 4 5 4 4 4 6 7 6 6 6 6 7 8 8 6 6 6 6 6 6 7 11 14 16 17 18 18 18 18 18 18 18 18 18 17 18 18 19 19 19 19 19 20 20 19 19 18 18 19 19 19 20 20 20 20
3 3 6 10 10 9 10 9 5 5 6 7 9 10 10 11 11 5 2 4 6 3 4 8 9 4 3 6 6 4 5 6 6 8 7 6 7 6 5 5 5 5 6 7 7 6 6 6 6 6 6 8 11 14 15 16 17 17 17 16 16 17 17 17 17 17 17 18 19 19 19 19 19 19 19 19 19 19 18 19 19 19 20 20 20 20
3 4 8 12 13 11 6 4 4 7 8 12 12 10 9 10 11 9 8 9 6 4 5 11 12 11 9 8 7 6 7 6 7 11 11 9 8 6 5 5 6 6 5 6 7 7 7 6 5 6 7 8 11 13 14 15 15 15 15 15 15 16 16 17 17 17 17 17 18 19 19 19 18 19 19 19 19 19 19 19 20 20 20 20 20 20
3 7 8 10 13 11 2 3 5 8 7 8 8 10 12 12 13 13 14 13 8 6 12 14 13 16 11 9 9 9 8 8 8 9 7 6 7 6 6 8 8 8 8 8 8 7 7 6 5 6 6 8 10 12 13 13 13 14 14 14 15 15 16 16 16 16 17 17 18 19 19 18 19 19 20 20 20 20 21 21 21 21 21 21 21 21
3 6 6 8 12 12 4 3 4 6 5 5 7 10 12 13 14 15 15 15 12 11 16 9 7 12 10 9 9 6 4 4 2 4 5 7 8 8 8 10 9 9 9 9 8 7 6 6 6 6 6 7 8 10 11 11 12 13 14 14 14 14 15 15 16 16 17 18 19 19 19 19 20 21 21 21 22 22 22 23 23 23 24 23 23 23
3 4 4 6 7 9 5 3 2 3 4 5 5 6 10 11 13 14 15 15 12 13 16 6 2 9 6 7 5 1 4 3 4 6 9 10 9 9 10 10 9 9 9 9 8 7 6 6 6 6 6 6 7 9 10 10 11 12 13 13 12 12 13 15 16 17 17 18 19 19 19 20 21 21 22 22 22 22 23 23 24 24 25 25 25 25
3 2 2 4 6 7 3 4 4 3 2 2 3 7 12 12 12 13 14 14 12 14 16 9 6 9 5 7 4 2 4 6 8 10 11 9 9 10 12 11 10 10 10 9 9 8 7 6 7 7 7 7 8 9 9 10 11 12 11 11 11 11 13 15 16 17 17 18 19 19 20 20 21 21 22 22 22 23 24 24 25 25 25 26 26 26
5 4 2 5 9 5 0 3 6 6 2 4 6 11 16 14 14 13 11 12 12 13 12 10 9 6 7 9 8 6 6 8 10 11 10 9 9 10 9 10 9 9 9 10 9 8 8 7 8 9 9 9 9 9 10 11 12 12 11 11 11 12 13 15 15 16 17 18 18 19 20 20 21 22 22 23 23 24 24 25 26 26 26 27 27 27
5 6 3 4 6 3 1 3 6 5 7 9 8 12 17 16 15 12 10 12 13 11 10 10 9 4 7 9 12 10 10 10 10 10 9 7 7 9 9 8 8 8 8 9 9 9 9 9 10 10 10 11 11 11 11 11 12 11 11 12 11 12 13 14 15 17 17 18 19 20 21 21 22 22 23 24 25 25 26 27 27 28 28 29 29 30
8 7 3 2 2 1 2 4 6 7 10 7 2 5 11 13 14 14 14 16 15 13 12 13 12 7 8 10 9 9 10 8 5 6 6 4 5 7 8 8 9 10 10 10 10 10 11 12 11 10 10 11 11 11 10 10 10 11 11 12 11 11 12 14 16 17 18 20 21 21 22 22 23 23 24 25 25 26 27 28 29 30 30 31 31 32
8 6 3 2 2 3 3 6 7 5 3 1 1 0 4 7 10 11 12 14 13 12 12 14 16 13 10 8 5 2 2 1 1 2 4 3 3 6 8 9 11 11 11 11 11 12 13 13 13 12 12 12 11 10 9 9 10 11 11 11 11 11 13 15 17 19 19 20 21 22 23 23 24 24 25 26 27 28 29 29 30 31 32 33 34 35
5 6 5 4 4 3 4 6 4 4 2 4 4 3 5 7 10 11 10 11 11 12 12 13 17 16 10 6 3 2 3 2 2 4 5 4 3 5 6 8 11 12 12 13 15 16 16 16 15 15 14 12 11 10 9 9 10 11 11 11 12 13 15 17 18 20 21 22 22 23 24 24 25 26 26 27 28 29 31 31 33 33 34 35 37 38
3 4 5 6 5 3 3 4 2 3 8 9 5 3 5 7 10 13 9 9 11 14 15 15 17 16 9 5 5 3 4 2 5 6 5 6 5 5 6 9 12 15 16 18 19 19 19 18 17 15 13 12 10 9 9 9 9 10 12 13 14 15 16 18 20 21 22 23 23 24 25 25 26 27 28 29 31 32 33 34 35 36 36 37 39 41
2 0 2 5 4 4 5 5 5 7 9 8 5 5 5 7 9 9 5 9 11 11 14 15 15 13 9 7 7 6 5 5 9 7 6 8 8 8 10 12 14 18 20 21 21 21 20 18 17 15 12 11 10 8 8 9 9 11 13 14 14 16 18 19 21 21 22 22 23 24 25 26 27 28 29 31 32 33 34 36 36 37 38 39 40 42
3 2 3 5 5 6 7 6 5 5 5 4 6 5 5 9 11 10 5 9 7 8 11 12 12 12 11 9 8 8 9 9 8 3 8 11 10 10 12 14 15 18 20 21 21 22 21 19 16 14 12 11 9 8 8 9 10 12 14 14 14 16 18 19 20 21 21 22 22 23 24 25 26 28 29 31 32 33 34 35 36 37 39 39 40 42
4 4 4 6 7 7 8 7 5 4 4 4 5 5 8 11 10 8 8 5 4 9 10 10 12 14 13 10 8 8 8 4 2 7 11 13 12 11 13 16 19 21 22 22 22 22 21 19 16 14 13 11 9 8 9 9 10 12 14 14 15 16 17 18 19 19 20 20 21 22 23 24 25 27 28 29 31 32 33 34 35 37 38 38 39 40
5 5 4 6 7 6 7 5 4 5 5 5 5 2 6 9 7 7 5 0 3 7 6 8 11 12 9 9 7 4 3 4 8 11 12 12 13 12 13 16 20 21 21 21 21 21 21 19 16 15 14 11 9 9 9 9 10 12 13 14 15 15 16 17 17 18 18 19 20 21 22 23 24 26 27 28 30 31 33 34 35 36 37 38 38 39
7 7 5 6 6 5 5 6 6 7 4 11 11 2 4 6 4 3 3 1 0 2 3 4 6 5 5 6 5 5 7 8 10 12 12 11 12 13 13 15 16 16 17 18 18 18 19 18 16 15 13 11 9 10 9 9 10 12 12 13 13 14 15 15 16 17 18 19 20 21 22 24 25 26 27 29 30 31 34 36 36 37 38 38 37 38
7 7 5 6 7 6 6 8 6 3 4 12 11 6 8 7 1 1 3 2 1 2 3 3 3 3 4 6 7 8 10 11 11 12 12 12 11 12 12 13 15 15 15 16 15 15 17 18 17 15 13 10 9 9 9 9 9 10 11 11 11 13 13 14 16 17 18 20 21 22 24 25 26 28 29 29 30 32 35 37 36 38 39 39 38 37
6 6 4 4 6 5 5 5 2 1 3 7 4 1 4 4 2 2 2 2 2 3 3 3 4 4 4 7 9 9 9 10 12 12 12 12 11 11 12 13 14 15 15 14 14 14 16 17 17 15 12 10 9 9 9 8 8 9 9 10 11 12 14 15 17 18 19 21 22 24 26 26 28 29 29 29 30 31 34 36 36 38 40 39 38 35
2 1 2 1 2 2 3 4 2 2 3 4 1 2 1 0 2 2 2 1 3 4 3 3 5 7 7 9 9 8 8 11 12 11 10 11 10 11 13 14 14 14 15 14 13 13 15 15 15 14 12 9 8 8 9 8 8 8 8 9 10 13 14 16 18 19 20 21 23 24 26 27 29 30 30 31 33 33 34 33 32 34 35 33 30 28
2 2 2 1 2 4 5 6 4 2 3 3 2 1 1 1 1 2 2 2 2 4 4 4 6 8 9 9 9 10 11 13 13 11 9 9 10 10 12 13 13 13 14 14 13 13 14 14 13 13 12 9 8 8 9 8 8 7 8 9 11 13 15 16 18 19 20 22 24 25 27 29 32 33 34 34 34 33 35 34 29 28 30 28 24 23
2 4 3 2 4 4 3 3 1 0 2 2 1 1 2 3 4 4 2 1 1 3 4 4 5 7 9 8 9 12 13 12 13 13 10 8 9 9 10 11 12 13 13 13 12 12 13 13 12 11 11 9 8 8 8 7 7 7 8 10 11 13 15 17 18 20 21 23 24 26 27 30 32 33 34 34 32 30 31 31 27 25 28 31 28 25
2 4 4 4 5 4 3 1 1 1 2 2 3 5 5 4 4 3 1 1 3 4 4 4 3 4 7 9 11 14 14 10 9 12 12 9 8 9 11 12 12 12 12 12 11 11 11 11 11 10 9 7 7 7 6 6 6 7 8 9 11 13 15 17 19 20 21 23 24 26 27 29 31 31 31 32 32 31 30 29 26 25 30 38 37 30
2 4 3 3 5 6 6 5 5 2 3 4 7 10 8 4 4 4 3 3 5 5 5 6 4 2 3 6 10 14 14 10 9 10 9 7 8 10 12 13 13 12 12 12 11 11 10 10 9 8 8 6 5 5 5 5 6 6 7 8 10 12 15 18 20 21 22 23 25 26 27 27 26 25 25 25 25 27 30 32 30 26 29 37 43 40
4 4 4 5 7 6 5 5 7 6 6 5 5 8 8 6 6 6 6 6 7 7 7 8 8 6 4 3 6 10 10 9 11 12 8 7 10 13 13 14 13 13 12 12 12 11 10 9 8 8 7 5 4 4 5 5 5 6 7 9 10 13 15 18 20 22 23 23 24 26 25 23 21 19 19 19 20 22 27 33 37 37 34 32 35 39
Wind_Direction
208 169 186 193 182 180 178 173 98 83 134 146 143 145 158 171 172 142 84 57 315 232 221 228 246 262 267 267 269 258 189 249 265 262 259 252 243 238 237 243 239 239 248 267 264 255 249 248 248 247 245 244 243 243 241 239 237 236 232 228 226 222 218 219 221 221 222 222 223 224 225 227 228 233 238 239 238 237 237 238 240 244 246 246 245 243
222 203 194 181 144 141 136 108 94 95 105 132 151 155 164 212 155 82 74 80 31 245 214 185 256 259 259 263 265 258 239 243 249 251 254 253 248 239 235 243 244 251 268 278 264 254 247 249 248 244 243 239 238 239 238 238 238 236 233 232 231 227 221 219 219 221 224 224 222 223 224 227 229 230 230 228 230 233 237 241 242 246 249 248 246 249
201 210 167 110 99 95 93 106 108 95 103 126 140 153 163 188 145 117 125 104 58 249 231 75 267 264 259 261 260 249 245 241 236 249 264 270 262 255 248 250 261 271 274 263 255 250 245 249 246 242 241 238 236 236 238 238 236 235 234 235 233 230 228 223 219 220 224 226 225 226 227 228 230 232 232 232 235 241 246 247 245 245 248 249 250 253
191 203 111 120 142 127 110 114 118 107 114 130 133 153 156 141 171 189 156 136 56 318 316 311 277 276 261 256 252 239 248 263 259 260 265 266 260 263 272 281 281 273 272 266 257 250 243 249 246 241 240 240 239 237 238 238 235 234 237 237 234 232 231 227 224 222 223 226 226 228 230 230 232 236 240 242 243 247 249 250 248 248 249 249 251 251
161 33 95 141 161 148 137 151 156 160 165 215 204 162 133 166 188 31 115 133 137 180 316 303 276 271 244 242 246 221 265 266 259 252 245 243 249 261 277 275 259 258 266 267 263 255 243 248 249 244 242 242 240 238 238 238 237 237 238 239 236 234 234 231 229 225 220 223 224 226 228 230 234 238 242 242 242 243 244 246 247 249 249 245 244 247
90 29 151 147 150 148 144 162 187 188 174 205 233 199 153 167 149 104 123 145 198 200 81 333 268 257 138 234 238 210 339 251 209 226 242 238 243 253 263 267 254 252 258 259 263 265 254 252 253 251 246 242 239 238 237 236 237 237 237 238 238 236 236 235 232 225 216 216 220 222 222 222 227 234 239 240 239 239 240 242 244 248 249 245 243 247
90 78 181 152 153 153 158 178 194 196 185 194 218 165 130 137 131 132 151 168 227 222 69 348 263 261 302 254 217 55 309 273 225 205 254 280 263 266 267 286 295 280 271 263 262 263 254 246 243 237 226 226 231 232 232 231 230 229 230 232 233 233 232 233 231 221 210 211 215 217 218 219 222 229 236 239 240 240 242 244 245 247 247 245 247 249
113 133 171 147 150 156 171 185 186 193 193 181 204 137 131 134 138 146 155 170 344 23 154 132 299 280 275 264 136 15 289 265 219 170 122 101 132 10 332 330 327 309 301 282 264 251 236 224 206 190 184 193 207 215 219 220 219 218 219 222 222 224 226 227 221 210 204 208 211 214 217 220 223 228 235 240 241 240 242 246 246 247 246 246 247 248
106 163 176 157 159 176 184 178 173 185 183 111 231 134 121 119 119 133 143 134 62 316 220 160 46 271 261 243 124 3 280 256 216 137 128 122 80 10 1 3 355 347 327 288 288 11 91 134 165 157 144 149 158 171 188 196 200 201 200 202 204 207 214 213 205 200 202 205 207 210 214 218 224 230 236 240 241 242 244 248 250 252 252 251 251 251
23 202 196 170 176 176 129 35 335 202 125 142 162 109 88 81 76 89 113 116 108 253 230 138 57 264 263 245 190 131 264 253 231 116 137 150 67 356 6 9 7 20 20 2 357 9 49 81 124 128 121 121 128 136 150 163 171 174 173 175 180 188 195 196 195 199 202 203 205 209 213 219 226 232 238 242 244 247 251 254 255 256 256 256 256 256
288 268 306 297 187 140 107 69 16 0 112 144 157 110 93 78 63 75 46 84 178 242 217 80 13 273 269 256 203 193 236 242 157 132 151 142 85 42 25 16 17 25 26 35 50 65 71 86 105 110 111 111 115 121 127 135 141 144 148 154 161 168 175 181 188 195 201 205 208 212 217 222 229 236 242 247 252 255 257 260 260 260 260 260 260 260
85 116 173 38 38 140 119 83 44 39 128 148 161 129 113 87 88 118 66 121 222 230 114 57 331 247 241 243 149 318 287 251 172 148 143 123 72 47 31 23 22 13 18 58 75 84 85 93 98 99 103 108 111 114 117 123 127 131 136 142 149 154 160 168 176 186 197 206 212 219 225 230 237 242 247 252 257 259 260 263 262 261 262 264 263 261
106 111 95 50 287 227 150 104 75 45 237 200 158 151 147 132 155 190 180 195 232 236 76 36 284 235 245 256 275 275 250 222 221 176 124 85 46 39 31 23 19 16 30 67 79 84 86 86 89 93 98 104 108 110 114 118 121 126 130 134 140 144 150 158 166 177 189 201 212 223 231 242 249 251 254 257 261 263 263 265 264 262 262 265 265 263
145 163 162 138 182 238 202 143 140 179 203 188 164 164 169 150 167 197 177 232 261 279 66 346 275 249 257 264 258 254 232 181 212 233 292 340 341 344 355 346 346 49 58 71 81 81 79 78 79 83 90 98 104 108 112 117 120 124 126 129 133 135 138 144 149 159 169 183 200 216 230 243 251 256 259 260 263 264 264 267 267 265 266 266 265 267
178 193 177 162 153 175 203 224 162 143 156 191 178 160 181 170 186 196 176 212 223 101 92 150 229 228 217 104 233 243 21 62 228 278 303 281 290 298 303 282 176 100 92 87 86 82 74 75 78 80 89 96 102 107 111 114 117 120 120 122 124 124 127 132 137 144 152 169 186 201 217 231 242 253 261 265 270 274 274 274 271 268 268 268 269 271
195 245 83 48 294 167 178 299 351 98 121 209 355 37 211 189 134 118 82 127 105 75 156 182 241 251 264 288 250 174 245 251 216 164 195 234 239 206 178 149 131 113 109 103 97 93 81 76 78 81 89 95 99 103 106 110 114 117 120 123 127 130 135 141 147 154 162 172 181 191 204 220 238 252 265 274 280 284 283 280 277 277 275 274 277 279
181 309 15 21 56 83 333 309 346 87 143 150 167 185 204 44 98 116 111 57 36 258 197 166 246 261 276 278 257 142 174 178 160 161 162 155 143 148 147 135 128 118 113 105 95 94 89 84 81 80 85 92 97 99 102 108 113 117 120 123 126 131 136 142 148 153 157 161 163 164 169 182 220 250 272 283 287 287 288 289 289 289 288 286 287 288
168 117 19 1 101 64 317 269 50 16 100 143 179 173 137 49 55 128 172 102 156 246 213 164 239 249 227 247 54 111 160 164 165 154 136 144 150 147 145 138 131 122 115 107 97 94 91 88 83 81 84 90 96 99 100 104 107 109 111 111 113 116 121 126 130 132 133 133 132 128 125 131 150 251 303 305 308 309 309 313 311 308 307 304 301 297
146 128 59 1 131 70 336 219 136 75 12 346 202 152 123 197 204 178 185 167 186 229 238 201 244 262 221 215 13 169 182 182 178 152 143 157 157 153 153 147 138 131 129 122 111 103 92 86 81 80 85 92 99 101 101 102 102 103 102 101 101 102 104 107 109 111 112 112 111 108 106 103 89 63 34 10 0 355 350 344 334 325 320 317 312 308
110 176 151 72 308 6 352 227 193 170 103 38 160 145 353 274 216 186 171 177 202 208 225 218 209 237 218 211 226 215 193 183 174 158 164 168 161 160 157 151 152 149 141 131 120 112 98 88 83 85 93 99 102 103 103 102 101 100 99 98 97 96 96 98 99 100 100 99 99 98 95 87 74 64 51 39 32 24 14 4 353 341 333 329 324 318
111 220 163 106 344 210 187 216 212 183 154 152 169 170 180 176 31 238 174 91 226 200 204 232 239 235 206 203 219 213 165 168 172 168 177 171 162 159 154 155 157 149 145 135 125 116 104 97 90 90 97 100 101 101 101 101 100 99 99 98 97 97 96 95 94 94 93 92 93 91 89 82 74 67 60 51 45 38 29 20 9 359 351 344 339 330
157 170 139 134 175 194 202 321 299 264 183 171 188 185 183 159 138 192 200 152 0 245 198 221 263 255 155 188 229 206 100 181 192 181 177 168 164 157 151 161 159 149 149 138 125 116 104 100 94 92 96 97 97 97 97 98 98 97 97 97 96 95 94 94 93 91 90 89 88 86 84 81 76 69 64 58 52 45 39 32 25 18 10 3 358 349
104 104 115 136 181 217 300 340 247 282 313 290 262 216 184 179 178 198 205 175 136 126 83 72 281 273 112 146 240 228 200 251 281 204 173 164 166 158 152 161 159 146 140 129 119 113 105 102 100 97 97 95 95 95 95 95 95 94 94 94 94 92 92 92 91 90 89 88 85 82 79 76 74 69 62 56 50 45 41 35 31 26 21 17 13 5
105 115 116 102 84 344 298 233 142 354 269 237 240 207 185 203 195 185 199 153 150 166 161 167 246 255 128 135 239 247 250 253 257 226 180 165 168 164 161 164 160 148 136 128 119 112 111 115 116 112 105 100 98 97 95 94 93 92 92 91 91 91 91 91 91 90 88 86 82 78 74 71 69 67 62 56 49 43 38 33 29 25 21 18 15 11
182 160 132 121 129 146 199 209 200 202 213 225 220 173 177 145 94 83 98 145 193 201 185 196 240 243 138 110 221 206 228 225 216 217 193 174 170 167 167 165 159 150 139 137 134 128 133 137 136 131 121 111 103 97 94 92 91 90 90 91 92 92 91 91 90 89 86 84 81 76 72 69 66 64 61 57 50 44 39 34 29 25 22 19 15 11
183 179 157 162 169 171 192 205 204 193 186 207 193 171 184 175 158 158 153 173 216 200 177 206 237 237 108 193 212 175 206 207 177 178 202 191 176 172 171 166 159 154 149 148 146 144 147 146 140 131 118 106 99 95 93 90 89 89 88 90 92 92 92 90 87 86 83 80 77 72 68 64 60 58 56 52 47 41 36 32 28 24 21 18 15 11
149 192 190 196 198 195 201 205 188 142 146 189 201 187 186 187 182 169 125 190 206 163 171 224 236 234 200 204 206 189 200 206 173 167 184 192 187 182 170 159 152 150 152 152 152 152 151 146 136 123 107 99 96 94 93 91 90 90 89 88 90 90 89 88 85 81 77 74 70 65 60 56 52 50 48 44 40 35 31 28 24 21 18 14 12 10
118 198 203 211 221 220 205 179 159 151 172 202 201 182 176 179 179 183 202 213 185 128 218 232 228 233 224 195 201 203 194 203 191 183 188 185 178 171 153 152 154 157 160 159 160 159 151 143 132 116 102 98 98 94 93 92 89 90 89 87 87 86 84 83 80 75 70 67 63 58 53 49 45 43 41 37 32 28 24 21 18 15 13 10 7 6
154 204 202 203 224 231 167 103 173 175 184 206 195 181 178 174 178 191 212 219 177 168 235 233 215 226 220 181 203 215 194 197 198 186 177 159 156 157 158 169 171 169 170 168 165 159 151 143 130 116 105 99 100 97 93 91 90 89 89 87 86 84 80 78 74 69 65 60 56 51 46 42 38 35 33 29 24 21 17 14 11 9 7 5 3 1
177 201 188 185 220 230 187 129 195 177 167 190 189 186 179 175 189 198 212 220 200 207 239 236 203 229 216 173 203 222 183 184 153 121 140 158 168 171 173 183 182 173 172 168 162 156 148 137 124 116 107 99 99 98 95 93 91 90 89 88 87 82 77 75 70 65 60 55 50 46 41 37 33 30 27 24 19 16 12 9 7 4 2 1 359 357
204 197 162 157 214 230 185 131 181 173 180 192 179 177 174 179 199 209 218 221 211 227 243 241 251 254 219 160 200 224 91 110 127 156 179 181 178 179 184 189 183 174 171 164 157 151 143 135 129 122 113 106 105 102 100 99 96 94 91 89 88 85 78 73 68 63 57 52 47 42 38 34 30 27 24 20 16 12 9 6 4 1 359 358 355 353
192 190 106 140 206 226 184 144 151 111 97 197 174 182 184 186 199 208 217 216 206 222 234 235 260 257 182 145 187 177 140 174 184 187 191 188 186 187 190 188 181 177 172 161 155 151 147 146 142 135 128 124 120 113 110 110 104 99 97 95 96 90 78 70 65 60 54 48 43 38 35 31 26 23 19 15 11 7 4 2 360 357 354 353 351 349
174 167 129 171 201 218 48 141 141 107 92 232 216 198 190 195 205 206 215 220 211 215 219 218 234 227 140 152 190 190 184 199 203 199 192 190 193 193 192 187 180 177 165 153 154 154 152 151 145 141 138 133 127 118 112 110 106 102 100 100 97 87 76 67 61 55 49 42 36 31 28 24 20 17 12 8 4 1 359 356 354 352 349 347 346 344
173 177 167 180 197 205 62 127 131 151 220 228 220 202 193 194 199 199 210 217 209 210 218 229 237 194 143 178 193 191 200 206 207 207 201 193 191 188 189 187 175 165 152 149 154 152 150 149 143 140 136 126 117 108 103 104 106 105 100 96 90 82 72 62 53 47 40 33 28 23 19 16 12 9 4 0 357 354 353 351 349 347 345 343 341 340
172 181 176 170 175 133 116 149 165 209 228 228 227 201 194 193 192 197 215 218 208 207 219 236 244 215 186 199 197 195 211 211 203 213 211 206 197 180 176 176 171 165 158 155 155 151 149 148 142 137 130 120 110 105 104 108 111 106 95 89 85 75 63 51 43 37 30 25 20 15 12 8 5 2 358 354 352 350 348 347 345 344 342 339 338 337
171 170 155 147 147 121 142 185 201 231 242 199 16 75 175 185 189 201 228 231 214 207 214 229 238 227 203 197 195 194 219 186 18 246 208 196 201 182 174 175 172 167 160 154 150 147 147 145 141 138 131 122 115 110 107 107 108 100 86 79 74 59 48 40 32 26 21 17 13 9 6 2 359 357 354 350 348 346 345 344 342 341 340 337 335 334
174 166 162 184 189 164 172 197 227 328 323 212 211 196 174 172 172 185 224 240 217 200 205 220 233 233 214 176 143 79 73 76 301 253 200 168 189 191 172 160 155 148 141 139 139 140 141 139 136 133 126 117 110 103 97 95 96 89 77 65 55 43 36 30 23 17 12 9 6 3 0 358 355 352 350 348 347 344 343 342 340 339 338 335 333 331
189 180 183 197 197 162 171 201 219 253 243 230 205 164 173 179 175 178 205 242 222 198 198 211 225 230 212 143 131 143 124 148 242 239 185 157 169 159 128 126 134 133 132 135 136 137 137 134 130 125 117 108 99 92 90 89 85 77 64 52 41 33 28 21 14 9 5 2 360 358 356 354 352 350 348 346 344 343 341 339 338 337 335 333 331 328
142 168 198 204 196 167 184 209 203 213 240 239 182 156 171 169 155 149 187 248 235 200 195 208 221 226 204 157 156 160 148 195 234 229 164 147 151 140 127 127 128 128 131 136 138 137 135 131 126 120 112 103 94 88 87 82 74 65 54 43 34 28 22 14 6 1 359 357 355 353 352 350 348 346 344 343 341 339 338 336 334 333 331 330 328 326
161 173 192 204 204 188 194 216 219 225 252 227 171 169 166 145 130 132 199 250 232 180 188 200 209 219 206 174 161 170 185 215 234 193 132 132 131 127 128 130 129 129 131 134 135 135 134 131 125 117 107 99 90 84 82 73 63 56 48 39 32 26 16 5 358 355 354 352 350 349 347 344 343 341 339 338 336 334 333 332 330 328 327 325 324 322
170 181 195 206 209 198 199 217 238 245 241 196 175 169 149 141 145 177 213 236 157 162 185 187 191 210 208 179 166 186 204 221 111 114 124 126 122 119 118 121 125 128 130 131 133 135 132 126 120 111 100 94 88 79 71 63 55 49 41 33 28 20 5 355 352 350 348 346 343 342 341 339 337 335 334 334 332 329 327 327 326 324 323 322 320 318
168 180 195 206 210 210 210 218 243 255 228 153 123 126 157 160 185 208 210 220 148 172 183 183 193 207 199 175 171 172 139 97 102 118 127 126 124 125 122 121 123 125 127 129 132 133 128 118 110 103 94 86 81 72 60 53 49 42 34 27 19 5 353 349 347 343 341 340 338 336 335 333 332 331 330 329 328 326 323 323 323 321 320 319 317 314
173 175 185 195 196 204 217 210 224 254 220 132 116 108 225 203 206 191 150 54 277 173 161 187 201 198 167 159 147 118 118 122 120 121 124 124 122 124 127 127 123 121 121 123 127 129 125 115 105 99 92 82 73 65 54 47 43 37 31 23 7 352 345 344 341 339 337 336 333 332 331 330 329 330 329 328 327 325 323 322 321 319 318 317 314 312
181 177 184 197 190 187 204 207 210 243 179 149 146 183 212 202 172 78 148 151 206 193 183 187 186 176 164 148 133 131 136 134 133 132 131 131 129 126 126 122 119 119 118 117 121 124 121 115 107 99 91 81 68 58 49 43 39 35 29 16 355 345 343 341 338 337 336 333 332 331 331 330 330 330 330 329 327 325 322 321 320 318 317 315 313 310
201 190 183 195 193 191 207 214 224 353 176 176 169 215 203 185 82 77 145 128 156 196 200 180 164 161 150 132 129 140 145 142 146 146 138 136 136 130 123 120 119 120 117 114 117 119 116 112 108 100 89 76 65 57 48 41 36 33 23 5 350 345 342 339 336 336 336 334 333 333 332 331 331 331 330 328 327 324 322 321 319 317 316 314 311 307
245 187 84 122 191 228 243 224 230 301 248 214 149 38 16 39 69 136 183 178 176 178 174 173 163 149 145 141 135 140 151 148 146 144 138 136 134 125 122 121 119 119 120 116 115 116 115 112 108 102 94 81 65 58 52 43 38 32 15 356 347 343 339 338 338 338 338 336 334 334 335 334 333 332 330 329 329 327 324 321 317 313 310 307 303 298
254 174 111 126 211 215 225 218 199 203 236 223 185 123 288 281 227 201 223 255 198 169 161 168 159 147 151 154 144 144 152 150 144 142 140 134 131 130 128 123 120 121 121 119 120 123 122 116 108 102 97 86 62 53 54 47 38 28 7 350 344 340 338 340 341 339 338 338 337 338 338 337 336 335 332 332 332 328 325 324 317 308 304 300 297 296
204 166 150 191 208 199 225 240 208 255 276 250 222 235 232 225 221 220 240 284 149 141 138 141 145 150 157 160 149 144 149 153 149 147 146 140 134 133 128 122 121 120 116 117 122 123 118 112 105 95 90 79 57 49 53 47 31 16 1 352 346 341 340 342 342 341 340 341 342 342 340 339 338 337 334 332 330 325 322 320 314 303 298 298 295 293
140 164 171 190 202 220 256 226 119 353 299 245 223 234 231 214 202 197 187 91 117 120 112 111 131 165 170 164 154 146 147 155 154 143 141 141 136 129 126 123 119 117 115 116 118 115 107 101 95 88 82 71 57 52 52 39 22 9 0 353 348 345 346 346 345 344 344 344 344 342 340 338 337 336 333 330 326 321 316 311 304 295 294 298 299 290
168 186 177 174 194 224 237 194 153 173 240 220 216 224 220 191 159 157 154 153 157 158 144 128 118 126 153 156 158 154 149 149 149 141 133 130 129 127 127 125 118 114 116 117 114 110 104 97 95 96 91 80 67 62 50 29 18 13 5 358 354 352 352 352 349 347 347 345 343 341 339 336 333 330 326 321 316 314 313 309 302 291 283 291 299 298
203 195 176 188 210 228 234 189 169 196 232 233 221 215 200 171 162 176 182 175 170 170 164 152 142 134 122 120 152 157 147 136 141 140 124 112 123 125 125 128 125 119 121 125 120 113 110 109 109 108 105 97 82 66 46 26 21 19 9 5 3 359 357 356 353 348 345 342 339 338 336 330 324 320 314 309 306 306 307 306 306 304 294 284 287 293